[[{"header":{"parameterUnit":"m.s-1","parameterCategory":1,"la1":30.2991,"la2":30.254,"lo1":-89.0895,"lo2":-89.0444,"dy":0.0017,"dx":0.0017,"nx":28,"ny":28,"refTime":"2025-07-13T09:00:00:Z","depth":0,"parameterNumber":2,"parameterNumberName":"U-component_of_WINDS"},"data":[0,0,0,0,0,0,0,0,0,0,0,0,0,0,0,0,0,0,0,0,0,0,0,0,0,0,0,0,0,0,0,0,0,0,0,0,0,0,0,0,0,0,0,0,0,0,0,0,0,0,0,0,0,0,0,0,0,0,2.0071,2.0071,0,2.0082,2.0082,2.0082,2.0072,2.0072,2.0071,2.0071,2.0081,2.0081,2.0082,0,0,0,0,0,0,0,0,0,0,0,0,0,2.004,2.0041,2.0071,2.0071,2.0071,2.0082,2.0082,2.0082,2.0072,2.0071,2.0071,2.0071,2.0081,2.0081,2.0082,0,0,0,0,0,0,0,0,0,0,0,0,0,2.0053,2.0041,2.0071,2.0067,2.0067,2.0082,2.0082,2.0082,2.0072,2.0071,2.0071,2.007,2.008,2.0081,2.0082,2.0101,0,0,2.0085,2.0086,0,0,0,0,0,0,0,0,2.0052,2.0054,2.0068,2.0067,2.0067,2.0075,2.0075,2.0089,2.0072,2.007,2.0071,2.007,2.0079,2.008,2.0084,2.0101,2.0102,2.0085,2.0086,2.0086,2.0087,0,0,0,0,0,0,0,2.0051,2.0053,2.0075,2.0068,2.0068,2.0065,2.0066,2.0078,2.0078,2.007,2.007,2.0071,2.0079,2.0083,2.0084,2.0102,2.0085,2.0086,2.0087,2.0087,2.0137,2.0138,0,0,0,0,0,0,2.0051,2.0053,2.0075,2.0075,2.0058,2.0066,2.0067,2.0073,2.0078,2.0078,2.0072,2.0071,2.0081,2.0083,2.0084,2.0107,2.0086,2.0087,2.0088,2.0137,2.0138,2.0138,0,0,0,0,0,0,2.005,2.0053,2.0074,2.0064,2.0066,2.0067,2.0074,2.0074,2.0077,2.0079,2.0079,2.0075,2.0081,2.0083,2.0097,2.0107,2.0088,2.0089,2.0136,2.0137,2.0138,2.0153,0,0,0,0,0,0,2.0049,2.0053,2.0059,2.0064,2.0067,2.0087,2.0074,2.0074,2.0079,2.0078,2.0082,2.0083,2.0081,2.0096,2.0098,2.0108,2.0089,2.0135,2.0136,2.0138,2.0151,2.0154,2.0157,0,0,0,0,0,2.0048,2.0062,2.006,2.0062,2.0076,2.0088,2.0089,2.0087,2.008,2.0087,2.0089,2.0082,2.0106,2.0097,2.01,2.0111,2.0134,2.0136,2.0137,2.015,2.0154,2.0157,0,0,0,0,0,0,2.0057,2.0063,2.006,2.0076,2.0082,2.0086,2.0094,2.0091,2.0098,2.0096,2.0093,2.0094,2.011,2.0112,2.0102,2.013,2.0119,2.0121,2.0128,2.0131,2.0134,2.0133,2.009,0,0,0,0,0,2.0061,2.0071,2.0075,2.0089,2.0092,2.0093,2.0098,2.0097,2.0102,2.0104,2.0106,2.0111,2.012,2.0126,2.0134,2.0152,2.0153,2.0161,2.0164,2.0166,2.0167,2.0179,2.0182,2.0144,2.0144,2.0144,0,0,2.0069,2.0074,2.0079,2.0091,2.0095,2.0105,2.0095,2.0105,2.0113,2.0105,2.0119,2.0122,2.0128,2.0144,2.0152,2.0146,2.0179,2.0168,2.017,2.017,2.0181,2.0184,2.0188,2.0145,2.0145,2.0145,0,0,2.0089,2.0093,2.0106,2.0111,2.0118,2.0119,2.0122,2.0128,2.0129,2.0144,2.0139,2.0148,2.0163,2.0168,2.0172,2.0197,2.0192,2.02,2.0213,2.0224,2.0227,2.023,2.0239,2.0243,2.0202,2.0202,2.0202,0,2.0098,2.0113,2.0112,2.0124,2.013,2.0125,2.0138,2.0143,2.0152,2.0156,2.0151,2.0171,2.0174,2.0193,2.0199,2.0203,2.0207,2.0199,2.0227,2.023,2.0232,2.0241,2.0245,2.0203,2.0203,2.0203,2.0203,0,2.0124,2.0135,2.0144,2.0155,2.0161,2.0174,2.0176,2.0183,2.0182,2.0183,2.0199,2.0204,2.0213,2.0218,2.0216,2.0237,2.0233,2.0228,2.0216,2.0237,2.0245,2.0248,2.0204,2.0204,2.0204,2.0203,0,0,2.0147,2.0159,2.0162,2.0168,2.0177,2.0185,2.0198,2.0209,2.0215,2.0223,2.0234,2.0248,2.0244,2.0249,2.0248,2.0257,2.0278,2.025,2.0251,2.0255,2.0302,2.0306,2.031,2.0276,2.0276,2.0277,2.0302,0,2.0167,2.019,2.0191,2.0212,2.0223,2.022,2.0231,2.0238,2.0241,2.0251,2.0254,2.0265,2.0257,2.0261,2.027,2.0273,2.0287,2.0272,2.0286,2.0286,2.0283,2.0314,2.0318,2.0341,2.0305,2.0306,2.0306,0,2.0192,2.0202,2.0225,2.0234,2.0239,2.0249,2.026,2.0269,2.0278,2.0279,2.0287,2.0285,2.0299,2.0289,2.0309,2.0298,2.0304,2.0307,2.0308,2.0308,2.0296,2.0315,2.0348,2.0352,2.0311,2.0311,2.031,0,2.0207,2.0226,2.0242,2.0247,2.0258,2.0266,2.0271,2.0279,2.0286,2.0296,2.0301,2.0312,2.0318,2.0327,2.0328,2.0321,2.0348,2.0338,2.035,2.035,2.0355,2.0354,2.0389,2.036,2.036,2.036,2.036,0,2.0229,2.0243,2.0249,2.0259,2.0275,2.0277,2.0293,2.0297,2.0305,2.0316,2.0315,2.0325,2.0327,2.0338,2.034,2.0357,2.0359,2.0361,2.0361,2.0361,2.036,2.0364,2.0362,2.0361,2.0361,2.036,2.036,0,2.0247,2.0252,2.027,2.028,2.0283,2.0295,2.0303,2.0313,2.0317,2.0331,2.0335,2.0341,2.0354,2.0357,2.0372,2.0374,2.0393,2.0392,2.0391,2.039,2.0402,2.0401,2.044,2.0445,2.0413,2.0413,2.0413,0,2.026,2.0271,2.0284,2.0291,2.0297,2.0309,2.0317,2.0321,2.0329,2.0342,2.035,2.0363,2.0374,2.0395,2.0401,2.0413,2.0412,2.0425,2.0414,2.0414,2.0412,2.0411,2.0413,2.0427,2.0427,2.0427,2.0427,0,2.0283,2.0286,2.0297,2.0311,2.0321,2.0331,2.0341,2.0347,2.0352,2.0362,2.0376,2.0385,2.0402,2.0415,2.0428,2.0433,2.0431,2.0432,2.0435,2.0434,2.0433,2.0434,2.0396,2.043,2.043,2.043,2.0429,2.0429,2.0299,2.0309,2.032,2.0334,2.0342,2.0352,2.0362,2.0369,2.0381,2.0395,2.0397,2.0413,2.0423,2.044,2.0447,2.0459,2.0455,2.046,2.0461,2.0462,2.0463,2.0432,2.0462,2.0462,2.0462,2.0462,2.0461,0,2.0321,2.0329,2.0342,2.0357,2.0368,2.0367,2.0379,2.0388,2.0402,2.0412,2.0424,2.0441,2.0455,2.0463,2.0477,2.0485,2.0485,2.0489,2.0488,2.0489,2.0466,2.0462,2.0489,2.0489,2.0489,2.0489,2.0489,2.0489,2.0334,2.0352,2.0356,2.0379,2.0386,2.0402,2.0409,2.0419,2.0427,2.0447,2.0459,2.0465,2.0474,2.0489,2.0502,2.0504,2.0509,2.0514,2.0515,2.0493,2.049,2.0488,2.0484,2.0515,2.0515,2.0537,2.0537,2.0538]},{"header":{"parameterUnit":"m.s-1","parameterCategory":1,"la1":30.2991,"la2":30.254,"lo1":-89.0895,"lo2":-89.0444,"dy":0.0017,"dx":0.0017,"nx":28,"ny":28,"refTime":"2025-07-13T09:00:00:Z","depth":0,"parameterNumber":3,"parameterNumberName":"V-component_of_WINDS"},"data":[0,0,0,0,0,0,0,0,0,0,0,0,0,0,0,0,0,0,0,0,0,0,0,0,0,0,0,0,0,0,0,0,0,0,0,0,0,0,0,0,0,0,0,0,0,0,0,0,0,0,0,0,0,0,0,0,0,0,-2.6545,-2.6545,0,-2.6536,-2.6536,-2.6536,-2.6526,-2.6526,-2.6526,-2.6525,-2.6513,-2.6513,-2.6513,0,0,0,0,0,0,0,0,0,0,0,0,0,-2.6554,-2.6554,-2.6545,-2.6545,-2.6545,-2.6536,-2.6536,-2.6536,-2.6526,-2.6526,-2.6526,-2.6525,-2.6513,-2.6513,-2.6513,0,0,0,0,0,0,0,0,0,0,0,0,0,-2.6548,-2.6554,-2.6545,-2.6539,-2.6538,-2.6536,-2.6536,-2.6536,-2.6526,-2.6526,-2.6526,-2.6525,-2.6513,-2.6513,-2.6512,-2.6514,0,0,-2.6512,-2.6511,0,0,0,0,0,0,0,0,-2.6548,-2.6547,-2.654,-2.654,-2.6539,-2.6532,-2.6534,-2.6529,-2.6526,-2.6531,-2.6525,-2.6525,-2.6519,-2.6518,-2.6517,-2.6514,-2.6513,-2.6511,-2.6511,-2.6511,-2.6511,0,0,0,0,0,0,0,-2.6549,-2.6548,-2.6541,-2.654,-2.6539,-2.6537,-2.6536,-2.6533,-2.6526,-2.653,-2.6529,-2.6529,-2.6519,-2.6517,-2.6517,-2.6513,-2.6511,-2.6511,-2.6511,-2.6511,-2.6515,-2.6515,0,0,0,0,0,0,-2.655,-2.6548,-2.6542,-2.6541,-2.6543,-2.6537,-2.6535,-2.6534,-2.6526,-2.6525,-2.6529,-2.6528,-2.6518,-2.6517,-2.6516,-2.652,-2.6511,-2.6511,-2.6511,-2.6515,-2.6515,-2.6515,0,0,0,0,0,0,-2.655,-2.655,-2.6542,-2.6545,-2.6543,-2.6537,-2.6536,-2.6534,-2.6533,-2.6525,-2.6524,-2.6529,-2.6518,-2.6517,-2.6516,-2.6519,-2.6511,-2.651,-2.6514,-2.6515,-2.6515,-2.6527,0,0,0,0,0,0,-2.6551,-2.655,-2.655,-2.6545,-2.6543,-2.6542,-2.6536,-2.6534,-2.6533,-2.6532,-2.6525,-2.6523,-2.6518,-2.6517,-2.6516,-2.6519,-2.651,-2.6514,-2.6514,-2.6515,-2.6526,-2.6527,-2.6529,0,0,0,0,0,-2.6551,-2.6552,-2.655,-2.655,-2.6544,-2.6542,-2.6542,-2.6536,-2.6533,-2.6534,-2.6529,-2.6523,-2.6519,-2.6517,-2.6515,-2.6519,-2.6514,-2.6514,-2.6515,-2.6525,-2.6527,-2.6529,0,0,0,0,0,0,-2.6556,-2.6551,-2.6549,-2.6549,-2.6546,-2.6541,-2.6541,-2.6538,-2.6535,-2.6534,-2.6526,-2.6525,-2.6526,-2.6522,-2.6519,-2.6522,-2.6516,-2.6516,-2.6524,-2.6526,-2.6527,-2.6528,-2.651,0,0,0,0,0,-2.6558,-2.6558,-2.6553,-2.6553,-2.6553,-2.6547,-2.6546,-2.6543,-2.6539,-2.6538,-2.6533,-2.653,-2.6528,-2.6527,-2.6524,-2.6526,-2.6525,-2.6528,-2.6529,-2.653,-2.653,-2.6534,-2.6535,-2.6517,-2.6517,-2.6517,0,0,-2.656,-2.6558,-2.6557,-2.6554,-2.6552,-2.6552,-2.6546,-2.6545,-2.6546,-2.6537,-2.6537,-2.6534,-2.653,-2.6531,-2.6531,-2.6528,-2.6536,-2.6531,-2.6532,-2.6532,-2.6535,-2.6536,-2.6538,-2.6518,-2.6518,-2.6518,0,0,-2.6565,-2.6562,-2.6564,-2.6562,-2.656,-2.6557,-2.6558,-2.6553,-2.6552,-2.6552,-2.6547,-2.6547,-2.6543,-2.6541,-2.654,-2.6548,-2.6543,-2.6548,-2.6555,-2.6558,-2.6559,-2.656,-2.6565,-2.6566,-2.6548,-2.6548,-2.6548,0,-2.6567,-2.6568,-2.6564,-2.6565,-2.6565,-2.656,-2.6562,-2.656,-2.6557,-2.6557,-2.6554,-2.6552,-2.6548,-2.655,-2.6553,-2.6551,-2.6552,-2.6548,-2.6559,-2.6561,-2.6562,-2.6566,-2.6568,-2.6549,-2.6549,-2.6549,-2.6549,0,-2.6572,-2.6573,-2.6574,-2.6574,-2.6573,-2.6574,-2.6572,-2.6572,-2.657,-2.6568,-2.6569,-2.6566,-2.6564,-2.6564,-2.656,-2.6567,-2.6565,-2.6561,-2.6555,-2.6564,-2.6568,-2.657,-2.655,-2.6549,-2.6549,-2.6549,0,0,-2.6577,-2.6577,-2.6578,-2.6579,-2.6578,-2.6578,-2.658,-2.658,-2.6582,-2.658,-2.6582,-2.6582,-2.6579,-2.6578,-2.6574,-2.6577,-2.6587,-2.6573,-2.6573,-2.6576,-2.6595,-2.6599,-2.6601,-2.6584,-2.6584,-2.6584,-2.6596,0,-2.6581,-2.6586,-2.6584,-2.6589,-2.659,-2.6588,-2.659,-2.659,-2.6589,-2.659,-2.6589,-2.6589,-2.6584,-2.6584,-2.6587,-2.6585,-2.659,-2.6584,-2.6586,-2.6586,-2.6588,-2.6603,-2.6605,-2.6616,-2.6598,-2.6598,-2.6598,0,-2.6586,-2.6588,-2.6593,-2.6595,-2.6596,-2.6598,-2.66,-2.6601,-2.6602,-2.6601,-2.6602,-2.6599,-2.6602,-2.6597,-2.6602,-2.6598,-2.6599,-2.6598,-2.6599,-2.6598,-2.6593,-2.6603,-2.662,-2.6622,-2.66,-2.66,-2.66,0,-2.6591,-2.6594,-2.6599,-2.66,-2.6601,-2.6603,-2.6604,-2.6605,-2.6606,-2.6608,-2.6609,-2.6611,-2.6611,-2.6613,-2.6611,-2.6607,-2.6617,-2.6611,-2.6617,-2.6617,-2.6618,-2.6618,-2.6636,-2.6619,-2.6619,-2.6619,-2.6619,0,-2.6596,-2.6599,-2.6601,-2.6604,-2.6609,-2.6608,-2.6613,-2.6613,-2.6615,-2.6618,-2.6615,-2.6618,-2.6615,-2.6618,-2.6617,-2.6623,-2.6622,-2.6622,-2.6622,-2.6623,-2.6623,-2.6623,-2.6622,-2.6619,-2.6619,-2.6619,-2.6619,0,-2.6601,-2.6602,-2.6607,-2.661,-2.6611,-2.6615,-2.6617,-2.662,-2.662,-2.6625,-2.6626,-2.6626,-2.663,-2.6629,-2.6632,-2.6631,-2.6639,-2.6637,-2.6639,-2.6639,-2.6645,-2.6645,-2.6663,-2.6666,-2.6647,-2.6647,-2.6647,0,-2.6604,-2.6607,-2.6612,-2.6615,-2.6616,-2.662,-2.6623,-2.6623,-2.6626,-2.663,-2.6632,-2.6637,-2.664,-2.6646,-2.6647,-2.665,-2.6649,-2.6656,-2.6649,-2.6651,-2.665,-2.665,-2.6652,-2.6656,-2.6656,-2.6657,-2.6657,0,-2.661,-2.6611,-2.6615,-2.6621,-2.6625,-2.6628,-2.6632,-2.6634,-2.6636,-2.6639,-2.6644,-2.6647,-2.6653,-2.6657,-2.6661,-2.6662,-2.666,-2.6659,-2.6661,-2.6662,-2.6663,-2.6664,-2.6643,-2.6658,-2.6658,-2.6658,-2.6658,-2.6658,-2.6614,-2.6618,-2.6623,-2.6629,-2.6632,-2.6637,-2.6641,-2.6643,-2.6648,-2.6654,-2.6654,-2.666,-2.6664,-2.6669,-2.6671,-2.6676,-2.6674,-2.6676,-2.6677,-2.6677,-2.6679,-2.6663,-2.6677,-2.6677,-2.6677,-2.6677,-2.6677,0,-2.6621,-2.6625,-2.663,-2.6637,-2.6642,-2.6642,-2.6647,-2.6651,-2.6657,-2.6662,-2.6666,-2.6674,-2.6679,-2.6682,-2.6688,-2.6692,-2.6691,-2.6693,-2.6693,-2.6693,-2.668,-2.6678,-2.6694,-2.6694,-2.6694,-2.6694,-2.6694,-2.6694,-2.6625,-2.6632,-2.6635,-2.6645,-2.6649,-2.6657,-2.666,-2.6665,-2.6669,-2.6678,-2.6683,-2.6686,-2.669,-2.6697,-2.6702,-2.6703,-2.6705,-2.6708,-2.6709,-2.6696,-2.6694,-2.6692,-2.6691,-2.6709,-2.6709,-2.6722,-2.6722,-2.6722]}]]